Temp
-19 -18 -18 -17 -17 -16 -16 -15 -15 -13 -12 -15 -14 -15 -14 -13 -13 -12 -12 -11 -11 -12 -12 -11 -11 -11 -11 -11 -12 -12 -13 -12 -13 -13 -13 -12 -13 -13 -13 -14 -14 -14 -13 -14
-19 -18 -18 -17 -17 -17 -16 -17 -16 -14 -13 -13 -14 -14 -14 -15 -15 -14 -13 -11 -11 -11 -12 -13 -12 -12 -12 -12 -12 -12 -12 -12 -12 -12 -12 -13 -13 -13 -13 -13 -14 -14 -14 -14
-20 -20 -19 -18 -17 -17 -17 -17 -15 -15 -13 -13 -13 -14 -14 -12 -12 -13 -13 -12 -12 -12 -12 -13 -13 -13 -12 -11 -12 -12 -12 -12 -12 -12 -13 -13 -13 -13 -13 -13 -13 -13 -13 -14
-21 -21 -20 -17 -19 -18 -18 -17 -16 -15 -14 -14 -14 -14 -13 -13 -14 -13 -13 -12 -12 -12 -12 -12 -12 -12 -12 -11 -11 -11 -11 -12 -12 -12 -12 -13 -13 -13 -13 -13 -13 -13 -13 -14
-22 -21 -20 -18 -19 -18 -18 -17 -17 -16 -16 -16 -15 -15 -15 -15 -15 -14 -14 -13 -13 -13 -12 -12 -12 -12 -11 -11 -11 -11 -11 -11 -12 -12 -12 -12 -13 -13 -13 -13 -13 -13 -13 -14
-23 -23 -22 -19 -20 -20 -20 -18 -18 -17 -16 -17 -18 -15 -15 -16 -16 -15 -14 -14 -14 -14 -14 -13 -13 -13 -12 -11 -11 -11 -10 -11 -12 -11 -12 -12 -12 -12 -12 -12 -12 -13 -13 -13
-23 -23 -23 -22 -21 -21 -21 -20 -20 -19 -18 -18 -17 -17 -16 -15 -15 -15 -14 -15 -14 -14 -14 -14 -13 -13 -12 -12 -11 -12 -11 -11 -11 -11 -12 -12 -13 -13 -12 -13 -13 -13 -14 -14
-24 -24 -23 -22 -22 -23 -22 -22 -20 -20 -20 -19 -18 -18 -16 -16 -16 -15 -15 -15 -16 -15 -15 -15 -14 -14 -13 -12 -12 -12 -11 -11 -11 -11 -12 -13 -14 -14 -14 -14 -14 -14 -14 -14
-24 -23 -23 -23 -23 -24 -24 -23 -22 -21 -20 -21 -20 -19 -18 -17 -17 -16 -16 -15 -15 -16 -15 -15 -15 -14 -14 -13 -13 -12 -12 -12 -11 -11 -12 -13 -13 -14 -14 -14 -14 -14 -14 -14
-25 -23 -23 -23 -24 -25 -25 -25 -23 -24 -22 -22 -22 -20 -20 -19 -18 -18 -17 -17 -16 -16 -16 -15 -15 -15 -14 -14 -13 -12 -13 -12 -11 -11 -12 -13 -13 -14 -14 -14 -14 -14 -15 -14
-25 -23 -24 -24 -25 -25 -25 -25 -24 -24 -24 -24 -23 -22 -21 -21 -20 -18 -16 -17 -17 -17 -17 -16 -16 -15 -15 -15 -14 -13 -13 -12 -12 -12 -12 -13 -13 -14 -14 -15 -15 -14 -15 -15
-25 -25 -26 -25 -25 -26 -25 -25 -25 -24 -24 -24 -23 -23 -22 -21 -21 -19 -18 -18 -17 -18 -18 -17 -17 -17 -15 -16 -15 -14 -13 -13 -12 -13 -12 -13 -14 -14 -14 -15 -15 -15 -15 -15
-25 -26 -26 -25 -25 -25 -25 -25 -25 -24 -24 -24 -23 -23 -22 -22 -22 -20 -18 -18 -18 -18 -19 -18 -17 -17 -16 -16 -15 -14 -14 -14 -13 -13 -13 -13 -14 -14 -15 -15 -15 -15 -15 -15
-25 -25 -25 -25 -26 -26 -26 -26 -26 -26 -26 -26 -23 -23 -23 -22 -22 -21 -20 -19 -19 -19 -19 -19 -19 -17 -16 -17 -15 -15 -15 -15 -14 -14 -14 -14 -14 -14 -15 -15 -15 -15 -15 -16
-26 -26 -26 -25 -25 -25 -26 -26 -25 -25 -26 -26 -25 -25 -24 -24 -23 -22 -21 -21 -21 -21 -19 -18 -19 -17 -16 -17 -16 -15 -15 -15 -15 -15 -15 -14 -15 -15 -15 -15 -15 -15 -16 -17
-26 -26 -26 -26 -25 -25 -25 -25 -25 -25 -25 -26 -26 -25 -25 -25 -24 -23 -21 -21 -22 -21 -20 -19 -19 -18 -17 -17 -16 -16 -16 -16 -16 -15 -16 -15 -15 -15 -15 -15 -15 -16 -17 -17
-26 -26 -26 -25 -25 -25 -24 -25 -25 -25 -25 -25 -25 -25 -24 -24 -24 -23 -22 -22 -22 -22 -21 -20 -18 -18 -18 -17 -17 -16 -16 -16 -16 -16 -16 -15 -16 -15 -16 -16 -15 -17 -17 -18
-26 -26 -26 -25 -25 -25 -24 -25 -25 -25 -25 -25 -25 -24 -24 -23 -23 -22 -22 -22 -22 -22 -21 -19 -18 -18 -18 -17 -17 -16 -16 -15 -16 -16 -16 -16 -16 -16 -16 -16 -16 -17 -17 -18
-26 -26 -25 -25 -25 -24 -24 -24 -25 -25 -25 -25 -24 -24 -23 -22 -22 -22 -22 -21 -21 -21 -19 -18 -19 -18 -18 -17 -17 -16 -16 -16 -15 -16 -16 -16 -16 -17 -16 -16 -17 -18 -18 -18
-25 -25 -25 -25 -25 -25 -24 -25 -25 -25 -25 -24 -23 -22 -23 -22 -22 -23 -22 -22 -21 -21 -19 -18 -19 -18 -17 -17 -17 -16 -16 -16 -17 -17 -17 -16 -16 -16 -16 -18 -18 -18 -18 -18
-25 -25 -25 -25 -25 -25 -25 -26 -26 -26 -26 -24 -23 -22 -22 -22 -22 -22 -22 -22 -21 -22 -19 -19 -19 -18 -18 -18 -17 -17 -16 -16 -16 -17 -16 -16 -15 -16 -18 -18 -18 -18 -19 -18
-25 -25 -25 -25 -25 -25 -26 -26 -26 -26 -25 -24 -23 -23 -23 -22 -21 -21 -21 -21 -21 -21 -20 -19 -18 -18 -18 -17 -17 -17 -16 -16 -16 -16 -15 -16 -18 -19 -19 -19 -19 -19 -19 -19
-26 -25 -25 -25 -25 -25 -25 -25 -25 -24 -24 -24 -23 -22 -22 -21 -21 -20 -20 -20 -20 -20 -20 -18 -18 -18 -17 -17 -18 -17 -17 -16 -16 -16 -16 -18 -19 -19 -19 -20 -19 -19 -19 -20
-26 -25 -25 -25 -24 -25 -25 -24 -24 -24 -23 -23 -22 -21 -21 -20 -20 -20 -20 -20 -19 -19 -18 -18 -17 -17 -17 -17 -17 -17 -16 -16 -16 -17 -18 -20 -20 -20 -20 -19 -19 -20 -21 -21
-27 -26 -25 -25 -25 -25 -25 -25 -25 -24 -23 -21 -21 -21 -21 -21 -20 -20 -20 -20 -19 -18 -18 -17 -17 -17 -17 -17 -17 -17 -18 -18 -20 -20 -20 -20 -20 -20 -20 -20 -21 -21 -21 -21
-28 -27 -27 -27 -27 -27 -27 -26 -26 -25 -25 -24 -23 -22 -21 -20 -20 -20 -20 -20 -19 -19 -19 -18 -19 -18 -18 -20 -21 -21 -22 -22 -21 -21 -21 -20 -20 -20 -20 -21 -21 -21 -21 -21
-28 -28 -27 -27 -27 -27 -27 -26 -26 -26 -25 -25 -25 -25 -25 -24 -23 -23 -23 -23 -23 -22 -22 -22 -22 -23 -23 -22 -22 -22 -22 -21 -21 -20 -20 -21 -21 -21 -21 -21 -21 -21 -22 -22
Height
5498 5505 5513 5522 5522 5531 5539 5550 5559 5584 5591 5600 5602 5607 5609 5615 5619 5624 5630 5635 5639 5641 5643 5645 5648 5654 5660 5664 5667 5671 5675 5679 5683 5686 5691 5694 5699 5702 5704 5707 5710 5712 5713 5714
5491 5495 5502 5505 5511 5521 5530 5536 5552 5565 5573 5582 5585 5587 5594 5600 5606 5613 5619 5623 5628 5632 5636 5637 5642 5645 5650 5655 5659 5662 5666 5670 5673 5676 5679 5684 5687 5691 5694 5696 5699 5700 5701 5702
5485 5485 5484 5493 5516 5515 5520 5527 5543 5548 5567 5568 5568 5571 5577 5581 5584 5592 5599 5607 5616 5620 5626 5630 5631 5636 5640 5645 5649 5653 5657 5661 5664 5667 5671 5674 5678 5680 5683 5686 5688 5689 5690 5689
5476 5473 5471 5504 5497 5500 5510 5522 5531 5540 5548 5550 5550 5558 5562 5567 5574 5580 5587 5596 5604 5609 5614 5619 5625 5627 5632 5636 5640 5644 5647 5651 5654 5657 5661 5665 5668 5671 5674 5676 5676 5677 5678 5679
5462 5465 5468 5489 5490 5503 5502 5513 5517 5524 5532 5536 5540 5542 5552 5555 5558 5564 5572 5581 5592 5595 5601 5606 5612 5616 5622 5628 5631 5635 5638 5641 5644 5648 5651 5655 5657 5661 5663 5664 5665 5667 5668 5669
5458 5462 5460 5488 5488 5480 5485 5484 5506 5517 5525 5524 5525 5528 5535 5538 5544 5548 5553 5563 5576 5582 5586 5592 5598 5603 5608 5614 5620 5624 5628 5630 5634 5637 5640 5643 5646 5649 5651 5651 5654 5656 5656 5656
5449 5449 5453 5475 5478 5473 5463 5477 5492 5500 5505 5505 5504 5511 5509 5517 5525 5528 5538 5544 5555 5563 5572 5577 5583 5589 5595 5601 5608 5610 5615 5618 5621 5624 5627 5630 5633 5635 5638 5641 5643 5643 5644 5644
5438 5437 5442 5472 5454 5447 5459 5458 5473 5471 5480 5482 5483 5489 5490 5494 5500 5509 5520 5528 5537 5547 5557 5563 5568 5577 5582 5589 5593 5598 5603 5606 5610 5612 5615 5618 5621 5623 5626 5629 5630 5631 5632 5633
5425 5429 5440 5442 5438 5437 5438 5443 5455 5448 5458 5459 5459 5462 5473 5478 5476 5492 5502 5511 5520 5531 5540 5548 5553 5566 5569 5575 5577 5584 5589 5593 5596 5600 5603 5605 5607 5611 5613 5616 5617 5619 5621 5622
5413 5424 5424 5426 5420 5421 5423 5425 5434 5429 5435 5435 5438 5446 5451 5456 5461 5470 5485 5496 5504 5510 5524 5533 5540 5545 5556 5558 5563 5571 5575 5579 5583 5587 5589 5593 5595 5598 5601 5603 5606 5607 5608 5608
5402 5411 5407 5409 5408 5408 5409 5410 5413 5419 5419 5417 5420 5429 5438 5438 5445 5454 5464 5479 5486 5494 5503 5518 5524 5528 5535 5542 5546 5557 5562 5567 5570 5573 5577 5579 5582 5587 5589 5591 5594 5594 5595 5595
5393 5399 5393 5395 5396 5395 5395 5396 5396 5409 5405 5401 5405 5410 5422 5426 5428 5438 5447 5455 5464 5476 5487 5496 5505 5511 5517 5524 5529 5540 5546 5552 5557 5559 5563 5566 5570 5576 5578 5579 5580 5582 5583 5583
5383 5383 5380 5381 5382 5382 5380 5382 5383 5384 5384 5382 5398 5397 5399 5401 5408 5419 5426 5435 5444 5455 5466 5475 5485 5493 5502 5510 5513 5524 5531 5537 5542 5544 5549 5555 5560 5564 5565 5567 5569 5572 5570 5568
5371 5368 5367 5370 5367 5368 5366 5367 5366 5367 5369 5369 5377 5380 5382 5379 5385 5398 5407 5417 5423 5429 5442 5456 5465 5477 5490 5491 5498 5510 5514 5520 5526 5531 5536 5542 5547 5551 5553 5555 5558 5558 5556 5556
5359 5355 5355 5355 5353 5354 5353 5351 5351 5351 5353 5354 5357 5358 5363 5363 5367 5378 5389 5396 5403 5409 5420 5437 5447 5459 5471 5473 5484 5492 5498 5505 5511 5517 5524 5529 5533 5537 5540 5543 5545 5542 5543 5545
5345 5343 5342 5340 5337 5337 5337 5337 5335 5336 5337 5339 5340 5343 5347 5349 5354 5359 5370 5380 5385 5393 5403 5414 5433 5442 5451 5456 5467 5474 5481 5490 5495 5502 5508 5514 5518 5523 5528 5530 5531 5530 5532 5533
5332 5330 5328 5326 5323 5322 5324 5323 5323 5322 5323 5324 5327 5330 5333 5337 5340 5346 5356 5362 5367 5374 5383 5393 5416 5424 5432 5440 5450 5457 5468 5475 5481 5487 5494 5499 5505 5511 5514 5516 5518 5518 5520 5522
5321 5317 5315 5313 5311 5310 5311 5311 5310 5310 5311 5313 5313 5316 5320 5324 5330 5334 5339 5343 5347 5354 5363 5378 5396 5409 5417 5424 5433 5441 5451 5460 5467 5473 5479 5486 5492 5495 5498 5502 5502 5505 5508 5511
5309 5305 5303 5299 5297 5296 5297 5297 5296 5296 5297 5297 5299 5302 5305 5308 5313 5318 5320 5322 5327 5336 5348 5364 5380 5391 5401 5410 5419 5428 5437 5444 5451 5458 5466 5472 5476 5480 5482 5486 5488 5492 5495 5499
5300 5296 5292 5289 5286 5285 5284 5283 5282 5282 5282 5283 5285 5288 5290 5293 5296 5299 5301 5305 5312 5320 5330 5350 5364 5375 5388 5398 5408 5416 5423 5430 5436 5443 5450 5454 5460 5464 5466 5470 5476 5481 5483 5487
5292 5289 5285 5281 5278 5275 5273 5272 5271 5270 5270 5271 5275 5278 5278 5279 5284 5287 5289 5295 5304 5309 5323 5337 5351 5364 5377 5386 5394 5403 5410 5415 5424 5430 5432 5438 5444 5447 5453 5459 5464 5469 5473 5476
5287 5283 5279 5274 5270 5267 5264 5262 5262 5261 5262 5266 5268 5268 5269 5273 5276 5278 5285 5292 5297 5306 5315 5329 5342 5353 5365 5372 5382 5388 5388 5400 5408 5414 5419 5424 5428 5436 5443 5449 5454 5457 5461 5464
5282 5279 5274 5268 5265 5262 5260 5260 5260 5260 5261 5261 5262 5263 5267 5270 5272 5275 5278 5282 5290 5301 5310 5322 5334 5348 5356 5363 5371 5377 5381 5385 5392 5399 5408 5412 5418 5425 5432 5440 5443 5447 5449 5450
5280 5277 5272 5266 5263 5262 5261 5260 5258 5257 5257 5257 5259 5262 5265 5268 5271 5274 5275 5275 5284 5295 5304 5314 5325 5334 5342 5351 5360 5368 5373 5377 5385 5391 5399 5406 5414 5418 5424 5428 5433 5435 5437 5441
5279 5276 5271 5268 5265 5264 5263 5261 5258 5255 5254 5256 5259 5262 5265 5268 5272 5275 5277 5279 5285 5290 5299 5308 5318 5325 5334 5340 5348 5355 5362 5368 5375 5383 5391 5398 5406 5412 5414 5417 5420 5424 5428 5430
5278 5276 5273 5270 5268 5266 5264 5262 5262 5262 5261 5261 5263 5264 5267 5270 5273 5276 5278 5279 5283 5290 5300 5307 5314 5323 5332 5339 5343 5349 5357 5366 5373 5379 5388 5393 5395 5398 5404 5409 5413 5417 5421 5425
5277 5276 5274 5272 5270 5269 5268 5267 5268 5268 5268 5268 5269 5271 5272 5274 5277 5281 5284 5287 5292 5299 5306 5312 5318 5324 5331 5339 5345 5352 5358 5364 5369 5374 5377 5382 5388 5393 5398 5403 5408 5411 5411 5412
Wind_Speed
65 60 63 64 60 50 43 57 52 45 58 52 44 36 47 46 27 37 37 42 43 41 36 43 39 41 37 38 37 43 44 43 43 47 48 48 48 48 49 51 51 51 48 47
59 56 66 74 73 70 58 49 49 54 61 62 63 57 57 52 44 38 36 44 40 45 40 30 30 38 40 39 43 39 39 41 42 43 45 49 50 51 53 53 54 53 50 50
57 56 54 63 65 70 65 59 61 60 58 66 72 73 72 74 73 65 62 57 53 48 44 43 35 34 39 40 42 45 47 44 45 46 50 53 55 56 56 54 53 53 53 52
55 59 67 44 48 54 66 61 58 58 61 63 69 72 80 75 70 71 70 63 60 57 57 53 51 51 40 39 42 42 46 50 51 51 50 50 51 51 52 51 55 55 53 50
64 68 67 65 68 60 57 61 68 66 54 55 57 60 60 64 66 67 67 66 58 61 62 59 50 51 52 46 40 42 45 48 52 53 54 53 53 53 53 55 57 55 51 46
38 39 56 54 56 62 76 78 72 69 70 68 69 68 69 65 61 66 68 63 55 57 59 57 50 49 49 48 49 47 49 48 50 51 54 54 54 54 54 56 54 52 51 47
39 43 44 29 48 56 71 73 68 62 64 70 78 78 86 85 77 77 76 72 62 61 58 56 56 55 54 53 53 51 50 51 51 52 52 53 53 54 54 54 52 53 49 47
40 40 40 21 44 54 49 53 72 77 71 71 77 88 93 90 83 76 74 74 62 55 61 63 64 57 57 56 55 55 54 54 54 55 55 56 54 55 55 50 49 47 49 49
42 42 31 40 43 42 44 47 50 63 78 81 84 81 80 89 86 79 74 77 73 64 60 66 65 61 62 63 63 59 56 54 52 53 53 53 53 53 47 45 46 47 52 57
36 27 26 34 38 39 41 44 47 53 62 66 78 86 82 80 84 79 76 72 75 72 62 63 59 59 59 62 62 58 56 57 56 55 56 54 54 51 43 42 44 49 52 57
39 26 34 34 39 43 45 48 48 49 53 59 64 76 80 81 81 81 83 81 79 77 75 68 62 67 65 69 71 67 61 62 63 60 57 57 57 47 40 42 46 48 53 59
42 36 39 41 42 46 52 55 56 48 56 63 66 67 72 75 83 88 88 88 83 75 66 65 62 62 65 69 69 64 64 64 63 64 62 61 56 42 37 38 43 50 58 63
38 38 43 45 46 46 49 50 53 51 56 64 64 62 69 67 74 84 94 91 85 77 70 65 64 63 63 70 73 65 64 68 68 68 66 61 48 41 38 40 47 56 63 67
36 40 42 41 44 45 47 46 48 49 45 48 59 60 63 71 69 76 81 94 92 88 86 72 63 62 63 70 70 67 66 68 69 68 66 60 48 42 41 44 52 60 63 58
41 45 45 44 46 46 46 47 48 49 48 48 43 49 52 58 61 63 69 69 68 66 81 86 66 62 65 70 76 70 69 66 65 65 60 55 49 45 45 48 53 61 59 51
42 45 46 47 47 43 41 43 43 43 44 44 45 43 44 49 55 55 62 61 61 62 66 78 71 61 66 68 73 78 69 65 61 61 63 58 57 52 48 48 59 59 54 50
45 43 42 42 44 39 32 32 35 37 39 41 42 42 43 44 47 50 51 55 55 56 57 60 76 66 65 66 62 73 72 65 57 56 57 55 57 54 50 53 62 57 56 53
41 43 43 41 40 41 32 30 34 37 39 40 41 43 46 46 45 47 49 56 58 55 54 60 69 68 64 67 61 63 66 63 57 55 56 55 55 55 60 62 63 56 57 53
31 34 33 35 36 36 37 35 37 40 43 43 44 44 42 44 45 47 52 59 56 59 57 64 60 59 62 62 60 62 62 59 53 54 62 59 56 59 64 70 57 56 55 50
26 25 25 23 26 29 30 33 36 40 38 39 40 41 43 43 45 45 45 49 54 60 56 59 61 51 44 43 57 56 57 55 56 56 57 60 60 66 73 59 51 55 52 49
23 24 22 24 26 28 31 33 34 30 32 33 35 37 38 39 33 40 43 39 48 56 58 63 58 44 39 42 47 54 54 55 65 67 67 56 59 67 56 51 54 50 48 46
21 20 20 22 18 19 19 18 17 21 25 24 28 31 33 30 31 39 37 42 40 45 52 58 54 44 51 42 43 45 60 66 64 67 69 64 55 51 51 53 51 48 43 39
19 18 19 15 8 7 10 12 12 12 9 21 26 26 25 23 26 26 30 39 43 49 44 55 49 60 51 42 42 45 47 53 55 48 51 53 48 50 49 50 44 39 34 25
17 13 13 5 6 9 11 11 12 13 12 24 25 20 21 19 18 20 17 22 48 55 57 52 44 56 64 56 54 58 67 68 61 49 48 46 47 44 45 43 35 25 22 24
12 9 5 9 11 5 4 6 8 6 2 16 21 20 22 21 21 20 16 22 36 39 41 40 48 44 43 52 59 68 61 53 49 49 47 44 45 45 33 25 21 21 22 25
8 7 6 9 11 11 12 13 10 6 6 9 16 22 23 22 18 15 18 17 20 23 26 28 29 35 45 47 45 44 43 42 40 40 43 40 30 23 21 19 19 21 25 31
7 5 2 5 3 2 3 3 4 5 5 6 7 10 13 15 16 17 22 25 28 30 34 36 37 37 36 35 34 34 34 38 41 35 28 23 19 16 16 20 24 26 28 31
Wind_Direction
210 213 215 214 219 216 217 220 214 218 217 214 231 234 244 244 231 242 246 241 235 241 237 234 231 230 225 232 237 234 239 243 241 236 238 239 243 248 253 256 261 263 266 271
206 206 216 221 222 223 219 222 219 223 227 223 217 221 232 239 237 232 234 240 235 239 234 217 231 227 230 230 232 237 235 239 243 245 246 244 247 250 252 258 262 265 271 274
218 220 214 218 225 227 227 227 228 230 232 230 228 230 232 234 238 238 238 236 241 243 240 232 239 238 238 235 233 234 234 237 241 243 242 245 247 249 253 258 262 267 271 271
231 234 235 193 214 223 228 225 217 217 220 221 227 228 233 236 240 243 247 245 244 243 244 246 244 252 249 243 240 240 238 236 239 240 242 244 247 251 256 261 263 265 268 269
245 239 239 234 236 230 228 222 228 226 212 225 233 237 232 234 239 244 245 245 243 245 249 251 250 248 257 248 244 248 248 243 241 242 245 245 249 253 255 258 263 265 267 270
248 252 254 216 234 242 235 233 230 229 234 241 250 246 240 229 236 242 245 246 241 238 241 245 245 242 245 241 241 241 247 245 246 248 247 248 250 252 255 256 261 265 265 263
254 256 257 234 239 252 251 240 234 232 232 232 234 238 241 242 242 240 240 245 238 234 233 234 236 233 235 235 236 239 242 246 247 248 249 249 248 247 251 257 260 260 262 262
254 258 264 245 243 250 248 246 239 239 233 230 230 229 233 238 236 235 234 236 234 227 227 229 236 230 234 237 237 240 244 246 251 251 250 249 250 251 256 261 262 260 261 256
262 262 270 245 245 257 258 250 237 241 238 240 241 237 231 229 237 233 231 233 236 236 234 227 236 235 239 240 241 242 245 245 245 246 246 249 252 258 260 258 257 259 259 264
275 275 265 237 254 256 257 260 244 251 244 246 243 243 242 238 235 239 230 234 239 240 232 226 231 239 243 241 240 239 243 243 244 246 248 249 254 256 256 259 257 258 262 264
277 257 269 259 266 267 265 264 257 253 254 256 251 244 244 250 245 243 242 242 241 242 243 233 244 244 241 240 242 244 240 241 243 244 245 245 250 250 244 253 258 261 262 261
272 271 271 266 264 266 267 268 269 254 255 253 251 251 245 244 247 240 240 243 243 240 240 241 232 235 235 236 237 238 237 236 238 241 241 244 248 237 250 254 264 265 264 270
271 267 265 267 267 266 266 265 265 264 253 252 241 249 250 249 244 243 235 238 241 239 241 242 237 233 231 232 232 234 236 237 237 240 241 243 236 242 248 256 257 263 267 262
272 269 268 271 270 268 266 264 263 263 259 258 245 247 245 247 247 240 242 242 244 249 243 242 245 236 228 236 234 231 233 236 237 236 235 235 235 245 250 256 262 266 259 252
274 274 274 272 269 268 269 267 264 262 261 254 249 244 241 244 244 237 238 241 248 244 247 240 234 238 228 236 232 231 229 230 232 232 236 240 253 246 258 253 259 259 251 253
269 271 275 274 271 268 263 262 262 261 258 255 253 241 237 237 235 229 229 237 240 238 236 240 232 230 235 234 233 232 230 229 234 235 241 248 253 253 258 262 259 252 246 243
275 272 271 274 274 271 265 258 257 257 256 255 251 246 243 241 236 230 227 232 237 229 228 227 229 230 231 235 235 235 236 239 240 244 248 250 254 252 252 255 256 245 243 242
278 276 275 274 272 269 262 261 259 264 265 257 253 248 244 242 241 231 235 236 237 235 213 217 219 222 221 233 229 230 235 239 241 244 245 249 245 247 252 254 249 241 242 243
287 288 288 283 279 268 263 268 267 267 268 265 255 255 251 249 242 241 243 239 236 227 205 205 205 207 219 228 226 231 234 233 235 238 240 241 245 245 248 248 241 243 238 245
299 297 297 283 283 280 274 270 265 269 265 258 251 249 255 252 246 248 241 232 223 204 192 207 210 207 206 220 220 222 227 229 233 238 241 241 239 245 248 237 239 238 239 245
308 306 298 292 283 276 267 261 263 260 252 243 241 252 252 253 243 244 226 221 211 206 194 206 209 197 210 216 211 223 226 232 235 241 239 234 242 242 237 235 235 233 240 251
313 311 296 299 287 275 270 254 256 254 243 237 241 250 247 244 238 230 218 226 209 210 198 205 200 204 220 224 228 237 222 218 225 230 235 232 232 229 231 234 229 232 242 250
323 316 310 312 276 287 312 278 270 271 258 234 238 237 248 232 217 215 232 225 212 199 200 213 210 212 214 227 235 231 235 237 225 231 245 234 220 222 224 228 230 238 247 249
319 314 320 323 287 273 272 274 288 270 262 235 228 230 212 218 214 213 219 208 189 195 200 196 203 213 213 224 223 231 227 227 228 223 225 219 220 219 222 229 235 238 249 259
316 314 329 38 47 28 357 14 17 340 238 214 230 240 228 237 219 208 205 174 172 179 194 200 209 213 224 216 222 225 218 208 205 206 208 210 218 223 223 227 236 253 269 283
317 320 351 18 16 13 21 41 45 65 116 162 200 201 209 200 198 208 208 166 149 166 181 193 205 215 219 206 195 192 195 197 199 203 210 213 214 216 227 241 258 273 279 281
314 304 7 67 108 267 309 30 43 60 103 126 125 125 137 143 155 163 162 161 163 168 173 176 177 177 178 182 186 192 199 206 210 210 208 207 212 228 251 263 269 276 285 294